Location: Berg
(47.2344°N, 9.5296°E)
Time: 16:44:32
(UTC+00:00)

Okean 1-7 Rocket - Pass Details

Date: 24 January 2021
Orbit: 615 x 650 km, 82.5° (Epoch: 28 February)

Event Time Altitude Azimuth Distance (km) Brightness Sun altitude
Rises 17:22:35 0° 190° (S) 2,946 7.4 -12.0°
Reaches altitude 10° 17:24:49 10° 192° (SSW) 2,044 6.6 -12.3°
Maximum altitude 17:29:22 80° 279° (W) 666 3.8 -13.1°
Drops below altitude 10° 17:33:59 10° 7° (N) 2,067 6.0 -13.8°
Sets 17:36:15 0° 9° (N) 2,981 6.8 -14.2°
